Regional Weather Roundup
Issued by NWS Cleveland, OH

Current Version | Previous Version | Graphics & Text | Print | Product List | Glossary On
Versions: 1 2 3 4 5 6 7 8 9 10 11 12 13 14 15 16 17 18 19 20 21 22 23 24 25 26 27 28 29 30 31 32 33 34 35 36 37 38 39 40 41 42 43 44 45 46 47 48 49 50
000
ASUS41 KCLE 140502
RWRCLE
OHIO REGIONAL WEATHER ROUNDUP
NATIONAL WEATHER SERVICE CLEVELAND, OH
100 AM EDT TUE JUL 14 2020

NOTE: "FAIR" INDICATES FEW OR NO CLOUDS BELOW 12,000 FEET WITH NO
SIGNIFICANT WEATHER AND/OR OBSTRUCTIONS TO VISIBILITY.

OHZ001>008-015>018-024>027-034-035-043-044-140600-
   NORTHWEST OHIO

CITY           SKY/WX    TMP DP  RH WIND       PRES   REMARKS
DEFIANCE       CLEAR     64  59  83 CALM      30.01R
FINDLAY        CLEAR     67  60  78 CALM      29.99F
TOLEDO EXPRESS CLEAR     67  60  78 W3        30.00S
TOLEDO EXEC    CLEAR     67  62  84 CALM      30.01S
LIMA           CLEAR     63  59  87 CALM      30.01S
$$

OHZ009>014-019>023-028>033-038-089-140600-
   NORTHEAST OHIO

CITY           SKY/WX    TMP DP  RH WIND       PRES   REMARKS
CLE-HOPKINS    CLEAR     63  59  87 CALM      30.03S
CLE-LAKEFRONT  CLEAR     71  58  63 SE5       30.00R
CUY CO. ARPT   CLEAR     60  58  92 CALM      30.03S
LORAIN-ELYRIA  CLEAR     64  57  78 CALM      30.01F
ASHTABULA      CLEAR     58  57  97 CALM      30.01F
AKRON-CANTON   CLEAR     66  58  75 NE3       30.02S
WOOSTER        CLEAR     61  57  87 CALM      30.03S
MANSFIELD      CLEAR     65  57  75 CALM      30.02F
YOUNGSTOWN     CLEAR     61  57  87 CALM      30.02S
$$

OHZ042-051>053-060>062-070>072-077>081-140600-
  SOUTHWEST OHIO

CITY           SKY/WX    TMP DP  RH WIND       PRES   REMARKS
CINC-COVINGTON PTCLDY    72  59  63 N5        30.00S
CINC-LUNKEN    PTCLDY    68  63  84 CALM      30.00R
HAMILTON       PTCLDY    66  62  87 CALM      30.01S
DAYTON         CLEAR     68  58  70 CALM      30.02S
WRIGHT-PAT AFB PTCLDY    67  62  83 CALM      30.00S
DAYTON GENERAL CLEAR     67  58  72 E3        30.00S
WILMINGTON     CLEAR     67  62  84 NE5       30.01S
$$

OHZ036-037-039>041-045>050-054>059-063>069-073>076-082>088-140600-
  CENTRAL AND SOUTHEAST OHIO

CITY           SKY/WX    TMP DP  RH WIND       PRES   REMARKS
COLUMBUS       PTCLDY    69  59  70 E3        30.00S
OSU AIRPORT    CLEAR     68  59  73 CALM      30.01S
BOLTON FIELD   NOT AVBL
RICKENBACK AFB PTCLDY    67  60  77 NE3       30.01R
NEWARK         CLEAR     64  60  87 CALM      30.01S
MARION         NOT AVBL
LANCASTER      PTCLDY    65  61  87 CALM      30.01S
ZANESVILLE     CLEAR     64  60  87 CALM      30.02R
NEW PHILLY     NOT AVBL
$$




USA.gov is the U.S. government's official web portal to all federal, state and local government web resources and services.